Weather History for Rush City, MN

Change the Weather History Date:

Sunday, December 16, 2012

  Actual Average (KCBG) Record (KCBG)
Temperature  
Mean Temperature 26 °F -  
Max Temperature 33 °F 25 °F 84 °F (1998)
Min Temperature 20 °F 8 °F -20 °F (1963)
Degree Days  
Heating Degree Days 38    
Moisture  
Dew Point 24 °F    
Average Humidity 91    
Maximum Humidity 99    
Minimum Humidity 86    
Precipitation  
Precipitation 0.04 in - - ()
Sea Level Pressure  
Sea Level Pressure 29.68 in    
Wind  
Wind Speed 7 mph (NW)    
Max Wind Speed 12 mph    
Max Gust Speed 20 mph    
Visibility 10 miles    
Events Rain    
Averages and records for this station are not official NWS values.
T = Trace of Precipitation, MM = Missing Value Source: NWS Daily Summary

Daily Weather History Graph

Daily Weather History Graph

Search for Another Location

Airport:

Trip Planner

Search our weather history database for the weather conditions in past years. The results will help you decide how hot, cold, wet, or windy it might be!

Date:

Astronomy

Dec. 16, 2012 Rise Set
Actual Time 7:46 AM CST 4:28 PM CST
Civil Twilight 7:12 AM CST 5:02 PM CST
Nautical Twilight 6:34 AM CST 5:40 PM CST
Astronomical Twilight 5:58 AM CST 6:16 PM CST
Moon 10:11 AM CST (12/16) 8:54 PM CST (12/16)
Length of Visible Light 9h 50m
Length of Day
8h 41m
Waxing Crescent, 16% of the Moon is Illuminated
Dec 16
Waxing Crescent
Dec 19
First Quarter
Dec 28
Full
Jan 4
Last Quarter
Jan 11
New

Hourly Weather History & Observations

Time (CST) Temp. Windchill Dew Point Humidity Pressure Visibility Wind Dir Wind Speed Gust Speed Precip Events Conditions
12:15 AM 32.2 °F 27.7 °F 31.8 °F 99% 29.54 in 10.0 mi WNW 4.6 mph - N/A Rain Light Rain
12:35 AM 32.0 °F 27.5 °F 31.8 °F 99% 29.53 in 10.0 mi WNW 4.6 mph - N/A Rain Light Rain
12:54 AM 32.2 °F 27.7 °F 31.8 °F 99% 29.53 in 10.0 mi NW 4.6 mph - 0.01 in Rain Light Rain
1:15 AM 32.2 °F 26.7 °F 32.0 °F 99% 29.54 in 10.0 mi WNW 5.8 mph - N/A Rain Light Rain
1:35 AM 32.4 °F 26.9 °F 32.0 °F 99% 29.54 in 10.0 mi WNW 5.8 mph - 0.01 in   Overcast
2:15 AM 32.7 °F 26.4 °F 32.0 °F 97% 29.56 in 10.0 mi WNW 6.9 mph - 0.01 in   Overcast
2:35 AM 32.9 °F 26.7 °F 32.0 °F 96% 29.56 in 10.0 mi NW 6.9 mph - 0.02 in   Overcast
2:54 AM 32.9 °F 28.5 °F 32.0 °F 96% 29.56 in 10.0 mi NW 4.6 mph - 0.02 in   Overcast
3:15 AM 33.1 °F 27.7 °F 32.2 °F 96% 29.57 in 10.0 mi NW 5.8 mph - N/A   Overcast
3:34 AM 33.3 °F 28.9 °F 32.2 °F 96% 29.57 in 10.0 mi NW 4.6 mph - N/A   Overcast
3:54 AM 33.3 °F 28.9 °F 32.2 °F 96% 29.57 in 10.0 mi NW 4.6 mph - N/A   Overcast
4:15 AM 33.3 °F 27.9 °F 32.0 °F 95% 29.58 in 10.0 mi NW 5.8 mph - N/A   Overcast
4:35 AM 33.4 °F 28.1 °F 32.2 °F 95% 29.59 in 10.0 mi WNW 5.8 mph - N/A   Overcast
4:54 AM 33.4 °F 28.1 °F 32.0 °F 94% 29.59 in 10.0 mi WNW 5.8 mph - N/A   Overcast
5:15 AM 33.4 °F 28.1 °F 32.0 °F 94% 29.61 in 10.0 mi WNW 5.8 mph - N/A   Overcast
5:35 AM 33.4 °F 28.1 °F 32.0 °F 94% 29.61 in 10.0 mi WNW 5.8 mph - N/A   Overcast
5:54 AM 33.3 °F 27.9 °F 32.0 °F 95% 29.61 in 10.0 mi WNW 5.8 mph - N/A   Overcast
6:15 AM 33.3 °F 27.9 °F 32.0 °F 95% 29.62 in 10.0 mi WNW 5.8 mph - N/A   Overcast
6:35 AM 33.1 °F 26.1 °F 32.0 °F 96% 29.62 in 10.0 mi WNW 8.1 mph - N/A   Overcast
7:15 AM 32.9 °F 25.3 °F 31.6 °F 95% 29.63 in 10.0 mi WNW 9.2 mph - N/A   Overcast
7:35 AM 32.9 °F 25.3 °F 31.1 °F 93% 29.63 in 10.0 mi WNW 9.2 mph - N/A   Overcast
7:54 AM 32.4 °F 26.0 °F 30.7 °F 94% 29.64 in 10.0 mi NW 6.9 mph - N/A   Overcast
8:15 AM 32.2 °F 23.2 °F 30.6 °F 94% 29.64 in 10.0 mi WNW 11.5 mph - N/A   Overcast
8:35 AM 31.8 °F 22.8 °F 29.3 °F 90% 29.65 in 10.0 mi NW 11.5 mph 16.1 mph N/A   Overcast
8:54 AM 30.2 °F 21.9 °F 27.5 °F 90% 29.66 in 10.0 mi NW 9.2 mph 19.6 mph N/A   Overcast
9:15 AM 30.0 °F 23.2 °F 27.3 °F 90% 29.67 in 10.0 mi NW 6.9 mph - N/A   Overcast
9:35 AM 29.3 °F 22.3 °F 26.6 °F 90% 29.67 in 10.0 mi NW 6.9 mph - N/A   Overcast
9:55 AM 28.9 °F 20.4 °F 25.9 °F 88% 29.68 in 10.0 mi NW 9.2 mph - N/A   Overcast
10:15 AM 28.4 °F 19.1 °F 25.7 °F 90% 29.69 in 10.0 mi WNW 10.4 mph - N/A   Overcast
10:34 AM 28.0 °F 20.8 °F 24.8 °F 88% 29.69 in 10.0 mi WNW 6.9 mph - N/A   Overcast
10:55 AM 27.9 °F 19.1 °F 24.1 °F 86% 29.70 in 10.0 mi WNW 9.2 mph - N/A   Overcast
11:14 AM 27.1 °F 18.2 °F 23.4 °F 86% 29.70 in 10.0 mi WNW 9.2 mph - N/A   Overcast
11:35 AM 26.4 °F 18.9 °F 23.0 °F 87% 29.70 in 10.0 mi NW 6.9 mph - N/A   Overcast
11:54 AM 25.7 °F 15.1 °F 23.0 °F 89% 29.70 in 10.0 mi WNW 11.5 mph - N/A   Overcast
12:15 PM 25.2 °F 15.1 °F 22.3 °F 89% 29.69 in 10.0 mi WNW 10.4 mph - N/A   Overcast
12:35 PM 24.8 °F 14.6 °F 21.9 °F 89% 29.69 in 10.0 mi WNW 10.4 mph - N/A   Overcast
12:54 PM 24.1 °F 15.2 °F 21.4 °F 89% 29.70 in 10.0 mi WNW 8.1 mph - N/A   Overcast
1:15 PM 22.8 °F 13.6 °F 20.3 °F 90% 29.70 in 10.0 mi WNW 8.1 mph - N/A   Overcast
1:34 PM 22.1 °F 12.0 °F 19.9 °F 91% 29.70 in 10.0 mi WNW 9.2 mph - N/A   Overcast
1:55 PM 21.9 °F 10.4 °F 19.4 °F 90% 29.70 in 10.0 mi WNW 11.5 mph - N/A   Overcast
2:14 PM 21.4 °F 11.1 °F 18.9 °F 90% 29.70 in 10.0 mi NW 9.2 mph - N/A   Overcast
2:35 PM 20.8 °F 10.4 °F 18.3 °F 90% 29.71 in 10.0 mi WNW 9.2 mph - N/A   Overcast
2:55 PM 20.8 °F 13.2 °F 18.5 °F 91% 29.71 in 10.0 mi WNW 5.8 mph - N/A   Overcast
3:14 PM 20.8 °F 10.4 °F 18.5 °F 91% 29.71 in 10.0 mi WNW 9.2 mph - N/A   Overcast
3:35 PM 20.7 °F 11.9 °F 18.5 °F 91% 29.72 in 10.0 mi WNW 6.9 mph - N/A   Overcast
3:54 PM 20.5 °F 11.7 °F 18.5 °F 92% 29.72 in 10.0 mi NW 6.9 mph - N/A   Overcast
4:15 PM 20.7 °F 11.9 °F 18.5 °F 91% 29.73 in 10.0 mi WNW 6.9 mph - N/A   Overcast
4:35 PM 20.7 °F 11.0 °F 18.5 °F 91% 29.74 in 10.0 mi WNW 8.1 mph - N/A   Overcast
4:54 PM 20.7 °F 11.0 °F 18.5 °F 91% 29.74 in 10.0 mi NW 8.1 mph - N/A   Overcast
5:15 PM 20.8 °F 12.1 °F 18.9 °F 92% 29.74 in 10.0 mi WNW 6.9 mph - N/A   Overcast
5:35 PM 21.0 °F 12.4 °F 19.0 °F 92% 29.74 in 10.0 mi NW 6.9 mph - N/A   Overcast
5:55 PM 21.0 °F 13.4 °F 19.0 °F 92% 29.75 in 10.0 mi NW 5.8 mph - N/A   Overcast
6:14 PM 21.0 °F 12.4 °F 18.7 °F 91% 29.75 in 10.0 mi NW 6.9 mph - N/A   Overcast
6:35 PM 21.0 °F 12.4 °F 18.3 °F 89% 29.76 in 10.0 mi NW 6.9 mph - N/A   Overcast
6:55 PM 20.8 °F 12.1 °F 17.8 °F 88% 29.77 in 10.0 mi NW 6.9 mph - N/A   Overcast
7:14 PM 21.0 °F 12.4 °F 17.8 °F 87% 29.78 in 10.0 mi NW 6.9 mph - N/A   Overcast
7:35 PM 20.8 °F 10.4 °F 17.6 °F 87% 29.78 in 10.0 mi WNW 9.2 mph - N/A   Overcast
7:55 PM 20.7 °F 11.9 °F 17.6 °F 88% 29.78 in 10.0 mi WNW 6.9 mph - N/A   Overcast
8:14 PM 20.8 °F 11.2 °F 17.6 °F 87% 29.78 in 10.0 mi NW 8.1 mph - N/A   Overcast
8:35 PM 21.0 °F 11.4 °F 17.6 °F 87% 29.78 in 10.0 mi WNW 8.1 mph - N/A   Overcast
8:54 PM 20.8 °F 13.2 °F 17.6 °F 87% 29.78 in 10.0 mi NNW 5.8 mph - N/A   Overcast
9:15 PM 21.0 °F 11.4 °F 17.6 °F 87% 29.78 in 10.0 mi NW 8.1 mph - N/A   Overcast
9:35 PM 21.0 °F 13.4 °F 17.6 °F 87% 29.78 in 10.0 mi NW 5.8 mph - N/A   Overcast
9:54 PM 21.2 °F 13.6 °F 18.0 °F 87% 29.78 in 10.0 mi NW 5.8 mph - N/A   Overcast
10:15 PM 21.2 °F 12.6 °F 17.8 °F 87% 29.78 in 10.0 mi NNW 6.9 mph - N/A   Overcast
10:35 PM 21.0 °F 13.4 °F 17.4 °F 86% 29.78 in 10.0 mi NNW 5.8 mph - N/A   Overcast
10:54 PM 20.8 °F 13.2 °F 17.4 °F 87% 29.78 in 10.0 mi NNW 5.8 mph - N/A   Overcast
11:15 PM 20.7 °F 15.8 °F 17.4 °F 87% 29.79 in 10.0 mi NNW 3.5 mph - N/A   Overcast
11:54 PM 20.7 °F 15.8 °F 17.8 °F 89% 29.79 in 10.0 mi NNW 3.5 mph - N/A   Overcast